TimeCDT,TemperatureF,Dew PointF,Humidity,Sea Level PressureIn,VisibilityMPH,Wind Direction,Wind SpeedMPH,Gust SpeedMPH,PrecipitationIn,Events,Conditions,WindDirDegrees,DateUTC
12:15 AM,59.7,49.3,68,29.88,10.0,SSE,8.1,-,N/A,,Clear,150,2013-10-11 05:15:00
12:35 AM,58.8,49.5,71,29.88,10.0,SSE,8.1,-,N/A,,Clear,160,2013-10-11 05:35:00
12:55 AM,58.3,49.5,72,29.88,10.0,SSE,6.9,-,N/A,,Clear,150,2013-10-11 05:55:00
1:15 AM,57.2,49.5,75,29.89,10.0,SE,6.9,-,N/A,,Clear,140,2013-10-11 06:15:00
1:55 AM,57.2,50.0,77,29.87,10.0,SE,8.1,-,N/A,,Clear,130,2013-10-11 06:55:00
2:15 AM,57.6,50.4,77,29.87,10.0,SE,9.2,-,N/A,,Clear,140,2013-10-11 07:15:00
2:35 AM,57.4,50.2,77,29.86,10.0,SE,9.2,-,N/A,,Clear,140,2013-10-11 07:35:00
2:55 AM,57.2,50.4,78,29.87,10.0,SSE,8.1,-,N/A,,Clear,150,2013-10-11 07:55:00
3:15 AM,56.8,50.4,79,29.86,10.0,SSE,6.9,-,N/A,,Clear,150,2013-10-11 08:15:00
3:35 AM,56.8,50.7,80,29.87,10.0,SSE,6.9,-,N/A,,Clear,160,2013-10-11 08:35:00
3:55 AM,56.5,50.4,80,29.87,10.0,SSE,6.9,-,N/A,,Clear,150,2013-10-11 08:55:00
4:15 AM,56.1,50.2,80,29.87,10.0,SSE,5.8,-,N/A,,Clear,150,2013-10-11 09:15:00
4:35 AM,54.5,49.6,84,29.87,10.0,SSE,4.6,-,N/A,,Clear,150,2013-10-11 09:35:00
4:55 AM,54.3,49.6,84,29.86,10.0,SE,6.9,-,N/A,,Clear,140,2013-10-11 09:55:00
5:15 AM,55.6,50.7,84,29.86,10.0,SSE,6.9,-,N/A,,Clear,150,2013-10-11 10:15:00
5:35 AM,56.7,50.9,81,29.85,10.0,SSE,8.1,-,N/A,,Clear,150,2013-10-11 10:35:00
5:55 AM,57.0,51.3,81,29.85,10.0,SSE,9.2,-,N/A,,Clear,160,2013-10-11 10:55:00
6:15 AM,57.2,51.3,81,29.84,10.0,SSE,9.2,-,N/A,,Clear,150,2013-10-11 11:15:00
6:35 AM,57.2,51.3,81,29.83,10.0,SSE,12.7,-,N/A,,Clear,150,2013-10-11 11:35:00
6:55 AM,57.7,51.4,79,29.83,10.0,SSE,12.7,19.6,N/A,,Clear,160,2013-10-11 11:55:00
7:15 AM,57.6,51.6,81,29.82,10.0,SSE,12.7,-,N/A,,Clear,160,2013-10-11 12:15:00
7:35 AM,57.6,52.0,82,29.81,10.0,SSE,12.7,18.4,N/A,,Clear,150,2013-10-11 12:35:00
7:55 AM,58.1,52.2,81,29.81,10.0,SSE,13.8,20.7,N/A,,Clear,150,2013-10-11 12:55:00
8:15 AM,59.2,52.7,79,29.80,10.0,SSE,13.8,20.7,N/A,,Clear,150,2013-10-11 13:15:00
8:35 AM,59.4,52.7,79,29.80,10.0,SSE,12.7,19.6,N/A,,Scattered Clouds,150,2013-10-11 13:35:00
8:55 AM,61.2,53.4,76,29.81,10.0,SSE,18.4,23.0,N/A,,Mostly Cloudy,150,2013-10-11 13:55:00
9:15 AM,62.8,53.6,72,29.79,10.0,SSE,18.4,24.2,N/A,,Scattered Clouds,150,2013-10-11 14:15:00
9:35 AM,64.2,53.6,68,29.78,10.0,SSE,18.4,27.6,N/A,,Clear,150,2013-10-11 14:35:00
9:55 AM,64.4,53.6,68,29.77,10.0,SSE,18.4,26.5,N/A,,Clear,150,2013-10-11 14:55:00
10:15 AM,64.9,54.0,68,29.77,10.0,SSE,17.3,24.2,N/A,,Clear,150,2013-10-11 15:15:00
10:35 AM,66.2,54.5,66,29.77,10.0,SSE,12.7,-,N/A,,Scattered Clouds,160,2013-10-11 15:35:00
10:55 AM,67.1,54.7,64,29.76,10.0,SSE,12.7,25.3,N/A,,Scattered Clouds,160,2013-10-11 15:55:00
11:15 AM,67.3,55.0,65,29.77,10.0,SSE,15.0,21.9,N/A,,Mostly Cloudy,160,2013-10-11 16:15:00
11:35 AM,67.3,55.6,66,29.77,10.0,South,12.7,20.7,N/A,,Overcast,170,2013-10-11 16:35:00
11:55 AM,68.0,55.6,64,29.77,10.0,SSE,12.7,21.9,N/A,,Overcast,160,2013-10-11 16:55:00
12:15 PM,70.3,55.9,60,29.76,10.0,South,16.1,24.2,N/A,,Overcast,170,2013-10-11 17:15:00
12:35 PM,69.6,55.6,61,29.76,10.0,South,19.6,26.5,N/A,,Overcast,180,2013-10-11 17:35:00
12:55 PM,70.5,55.9,60,29.75,10.0,South,21.9,28.8,N/A,,Overcast,170,2013-10-11 17:55:00
1:15 PM,70.2,55.8,60,29.74,10.0,South,21.9,29.9,N/A,,Overcast,180,2013-10-11 18:15:00
1:35 PM,70.9,56.3,60,29.73,10.0,South,17.3,23.0,N/A,,Overcast,170,2013-10-11 18:35:00
1:55 PM,70.3,56.3,61,29.74,10.0,South,17.3,24.2,N/A,,Overcast,170,2013-10-11 18:55:00
2:15 PM,70.7,56.5,61,29.72,10.0,South,19.6,27.6,N/A,,Overcast,170,2013-10-11 19:15:00
2:35 PM,71.1,56.8,61,29.71,10.0,South,16.1,28.8,N/A,,Overcast,170,2013-10-11 19:35:00
2:55 PM,70.9,56.8,61,29.72,10.0,South,16.1,27.6,N/A,,Overcast,180,2013-10-11 19:55:00
3:15 PM,70.3,57.2,63,29.72,10.0,South,18.4,27.6,N/A,,Overcast,180,2013-10-11 20:15:00
3:35 PM,70.3,57.4,63,29.72,10.0,South,23.0,29.9,N/A,,Overcast,180,2013-10-11 20:35:00
3:55 PM,70.2,57.6,64,29.72,10.0,South,18.4,24.2,N/A,,Overcast,190,2013-10-11 20:55:00
4:15 PM,69.8,58.1,66,29.73,10.0,South,17.3,26.5,N/A,,Overcast,180,2013-10-11 21:15:00
4:35 PM,70.2,58.3,66,29.73,10.0,South,16.1,24.2,N/A,,Overcast,170,2013-10-11 21:35:00
4:55 PM,72.5,58.3,61,29.72,10.0,South,20.7,-,N/A,,Scattered Clouds,170,2013-10-11 21:55:00
5:15 PM,72.7,58.1,60,29.73,10.0,South,19.6,27.6,N/A,,Clear,180,2013-10-11 22:15:00
5:35 PM,72.5,58.1,60,29.73,10.0,South,19.6,28.8,N/A,,Clear,170,2013-10-11 22:35:00
5:55 PM,72.0,58.3,62,29.74,10.0,South,16.1,26.5,N/A,,Clear,180,2013-10-11 22:55:00
6:15 PM,71.4,58.5,64,29.74,10.0,South,13.8,24.2,N/A,,Clear,170,2013-10-11 23:15:00
6:35 PM,70.2,58.6,67,29.74,10.0,South,15.0,23.0,N/A,,Clear,170,2013-10-11 23:35:00
6:55 PM,69.3,58.8,69,29.74,10.0,South,10.4,20.7,N/A,,Clear,170,2013-10-11 23:55:00
7:15 PM,68.2,59.0,72,29.75,10.0,South,10.4,-,N/A,,Clear,170,2013-10-12 00:15:00
7:35 PM,68.0,59.0,73,29.76,10.0,South,11.5,-,N/A,,Clear,170,2013-10-12 00:35:00
7:55 PM,67.6,59.0,74,29.77,10.0,South,11.5,-,N/A,,Clear,170,2013-10-12 00:55:00
8:15 PM,67.1,59.0,75,29.77,10.0,South,9.2,-,N/A,,Clear,170,2013-10-12 01:15:00
8:35 PM,66.4,59.0,77,29.77,10.0,South,8.1,-,N/A,,Clear,170,2013-10-12 01:35:00
8:55 PM,66.4,59.0,77,29.77,10.0,South,10.4,-,N/A,,Clear,180,2013-10-12 01:55:00
9:15 PM,66.0,59.2,79,29.77,10.0,South,8.1,-,N/A,,Clear,170,2013-10-12 02:15:00
9:35 PM,65.3,59.0,80,29.77,10.0,South,9.2,-,N/A,,Clear,180,2013-10-12 02:35:00
9:55 PM,65.3,59.2,81,29.77,10.0,South,8.1,-,N/A,,Clear,190,2013-10-12 02:55:00
10:15 PM,64.9,59.0,81,29.79,10.0,South,6.9,-,N/A,,Clear,190,2013-10-12 03:15:00
10:35 PM,64.4,59.2,83,29.80,10.0,WNW,6.9,-,N/A,,Scattered Clouds,290,2013-10-12 03:35:00
10:55 PM,64.6,52.0,64,29.82,10.0,West,11.5,-,N/A,,Overcast,280,2013-10-12 03:55:00
11:15 PM,62.1,49.8,64,29.83,10.0,WNW,9.2,-,N/A,,Overcast,300,2013-10-12 04:15:00
11:35 PM,59.2,48.4,67,29.84,10.0,West,10.4,-,N/A,,Scattered Clouds,280,2013-10-12 04:35:00
11:55 PM,57.6,46.4,66,29.85,10.0,WNW,11.5,18.4,N/A,,Clear,290,2013-10-12 04:55:00